User: anonymous   Login
Location: Champignolles
(47.0543°N, 4.5663°E)
Time: 18:49:07
(UTC+00:00)
Language:

NOAA 16 DEB - Orbit

View from above orbital plane
View from above orbital plane
View from above satellite
View from above satellite

Ground track
Ground track

The orbit data is extracted from the following two-line orbital elements,

1 41661U 00055PA  21172.54430306  .00000905  00000-0  45048-3 0  9994
2 41661  98.9623 286.6250 0033494 124.2333 236.2023 14.19304471267521
Epoch (UTC): 21 June 2021 13:03:47
Eccentricity: 0.0033494
inclination: 98.9623°
perigee height: 803 km
apogee height: 852 km
right ascension of ascending node: 286.6250°
argument of perigee: 124.2333°
revolutions per day: 14.19304471
mean anomaly at epoch: 236.2023°
orbit number at epoch: 26752

The dashed part of the orbit path shows where the satellite is in the earth's shadow,  

DLR